#timestamp,LO_Frequency,Hit,StdDev 
1692007215.9,286047007.5,N
1692007235.7,286047007.5,N
1692007255.6,286047005.1,N
1692007275.4,286047003.6,N
1692007295.2,286047002.5,N
1692007315.1,286047000.2,N
1692007316.0,286047000.2,N
1692007335.8,286046998.2,N
1692007355.7,286046998.8,N
1692007375.3,286046996.6,N
1692007395.2,286046997.3,N
1692007415.0,286046996.9,N
1692007415.9,286046996.9,N
1692007435.7,286046997.2,N
1692007455.6,286046995.4,N
1692007475.4,286046999.4,N
1692007495.3,286046997.8,N
1692007515.1,286046995.6,N
1692007516.0,286046995.6,N
1692007535.8,286046993.8,N
1692007555.7,286046992.3,N
1692007575.5,286046992.0,N
1692007595.3,286046993.8,N
1692007615.2,286046994.1,N
1692007635.0,286046992.9,N
1692007635.9,286046992.9,N
1692007655.8,286046992.9,N
1692007675.6,286046991.1,N
1692007695.4,286046992.0,N
1692007715.3,286046988.9,N
1692007735.1,286046990.9,N
1692007755.8,286046995.3,N
1692007775.7,286046988.9,N
1692007795.5,286046992.5,N
1692007815.3,286046991.3,N
1692007835.2,286046994.7,N
1692007855.0,286046997.7,N
1692007855.9,286046997.7,N
1692007875.8,286046999.1,N
1692007895.6,286046999.1,N
1692007915.4,286046996.4,N
1692007935.3,286046989.4,Y
1692007955.1,286046994.0,P
1692007975.8,286046997.8,P
1692007995.7,286046990.8,P
1692008015.5,286046994.8,N
1692008035.4,286046995.0,N
1692008055.2,286046993.9,N
1692008075.0,286046994.1,Y
1692008075.9,286046994.1,P
1692008095.8,286046997.0,P
1692008115.6,286046992.9,P
1692008135.5,286047000.2,N
1692008155.3,286046999.3,N
1692008175.1,286046995.6,N
1692008195.9,286046996.1,N
1692008215.7,286046990.6,Y
1692008235.5,286046995.0,P
1692008255.4,286046997.2,P
1692008275.2,286046991.8,P
1692008295.1,286046991.0,Y
1692008296.0,286046991.0,P
1692008315.8,286046995.4,N
1692008335.6,286046997.7,N
1692008355.5,286046992.4,Y
1692008375.3,286046995.5,P
1692008395.2,286046999.9,N
1692008415.9,286047001.3,N
1692008435.7,286046998.4,N
1692008455.6,286046995.1,N
1692008475.4,286046997.4,N
1692008495.2,286046997.5,N
1692008515.1,286046996.7,N
1692008516.0,286046996.7,N
1692008535.8,286046997.8,N
1692008555.7,286046995.0,N
1692008575.5,286046995.9,N
1692008595.3,286046996.6,N
1692008615.2,286046991.8,Y
1692008635.0,286046996.1,P
1692008635.9,286046996.1,P
1692008655.8,286046990.3,P
1692008675.4,286046991.6,Y
1692008695.3,286046998.0,P
1692008715.1,286046997.9,N
1692008735.8,286046992.0,P
1692008755.7,286046992.1,Y
1692008775.5,286047000.5,P
1692008795.4,286046994.9,N
1692008815.2,286046993.3,N
1692008835.0,286046992.1,N
1692008835.9,286046992.1,N
1692008855.8,286046995.6,N
1692008875.6,286046991.9,Y
1692008895.4,286046986.3,P
1692008915.3,286046997.5,N
1692008935.1,286046999.3,N
1692008955.9,286046997.1,N
1692008975.7,286046998.8,N
1692008995.5,286047004.9,N
1692009015.4,286047001.3,N
1692009035.2,286046993.6,N
1692009055.0,286047000.8,N
1692009055.9,286047000.8,N
1692009075.8,286047013.3,N
1692009095.6,286047006.5,N
1692009115.5,286046999.4,N
1692009135.3,286046993.8,N
1692009155.1,286046982.5,N
1692009175.9,286046988.3,N
1692009195.7,286046989.1,N
1692009215.5,286046988.8,N
1692009235.4,286046990.8,N
1692009255.2,286046986.5,N
1692009275.1,286046982.2,N
1692009276.0,286046982.2,N
1692009295.8,286046986.2,N
1692009315.6,286046988.7,N
1692009335.5,286046986.0,N
1692009355.3,286046982.6,N
1692009375.1,286046979.4,N
1692009395.9,286046980.2,N
1692009415.7,286046974.4,N
1692009435.6,286046972.9,Y
1692009455.4,286046987.7,P
1692009475.2,286046987.9,P
1692009495.1,286046982.8,P
1692009496.0,286046982.8,Y
1692009515.8,286046988.7,P
1692009535.6,286046991.9,P
1692009555.5,286046992.1,P
1692009575.3,286046993.6,Y
1692009595.2,286047002.1,P
1692009615.9,286047003.8,N
1692009635.7,286046997.7,N
1692009655.6,286046997.7,N
1692009675.4,286046994.3,N
1692009695.2,286046993.1,N
1692009715.1,286046987.6,N
1692009716.0,286046987.6,N
1692009735.8,286046990.2,N
1692009755.7,286046990.0,N
1692009775.5,286046984.1,N
1692009795.3,286046982.9,N
1692009815.2,286046980.6,Y
1692009835.0,286046991.4,P
1692009835.9,286046991.4,P
1692009855.7,286046985.9,P
1692009875.6,286046986.8,Y
1692009895.4,286046993.7,P
1692009915.3,286046993.8,P
1692009935.1,286046990.8,P
1692009936.0,286046990.8,Y
1692009955.8,286047001.6,P
1692009975.7,286046996.9,N
1692009995.5,286046995.2,N
1692010015.3,286046994.7,N
1692010035.2,286046993.5,N
1692010055.0,286046998.3,N
1692010055.9,286046998.3,N
1692010075.8,286046998.0,N
1692010095.6,286046990.5,Y
1692010115.4,286046994.7,P
1692010135.3,286046996.6,P
1692010155.1,286046994.9,P
1692010175.9,286046997.8,N
1692010195.7,286046997.4,N
1692010215.5,286046993.8,Y
1692010235.4,286047000.3,P
1692010255.2,286047004.4,N
1692010275.0,286047002.5,N
1692010275.9,286047002.5,N
1692010295.8,286046996.9,N
1692010315.6,286046998.0,N
1692010335.5,286046994.0,N
1692010355.3,286046988.6,Y
1692010375.1,286046978.4,P
1692010395.9,286046988.5,N
1692010415.7,286046997.4,N
1692010435.6,286046993.9,N
1692010455.4,286046992.2,N
1692010475.2,286046993.8,N
1692010495.1,286046993.2,N
1692010496.0,286046993.2,N
1692010515.8,286046988.0,N
1692010535.6,286046984.5,N
1692010555.5,286046981.1,Y
1692010575.3,286046987.0,P
1692010595.2,286046985.8,P
1692010615.9,286046989.3,P
1692010635.7,286046994.3,N
1692010655.6,286046997.5,N
1692010675.4,286046995.0,N
1692010695.2,286046996.7,N
1692010715.1,286046998.5,N
1692010716.0,286046998.5,N
1692010735.8,286046995.4,N
1692010755.7,286046986.6,Y
1692010775.5,286046986.3,P
1692010795.3,286046995.2,N
